Regional Weather Roundup
Issued by NWS

Home | Current Version | Previous Version | Text Only | Print | Product List | Glossary Off
Versions: 1 2 3 4 5 6 7 8 9 10 11 12 13 14 15 16 17 18 19 20 21 22 23 24 25 26 27 28 29 30 31 32 33 34 35 36 37 38 39 40 41 42 43 44 45 46 47 48 49 50

000
ASUS43 KFSD 222010
RWRSD

WEATHER ROUNDUP FOR SOUTH DAKOTA
NATIONAL WEATHER SERVICE SIOUX FALLS SD
200 PM CST MON JAN 22 2018

NOTE: "FAIR" INDICATES FEW OR NO CLOUDS BELOW 12,000 FEET WITH NO
SIGNIFICANT WEATHER AND/OR OBSTRUCTIONS TO VISIBILITY.


SDZ001>005-009-010-012>017-222100-
NORTHWEST AND NORTH CENTRAL SOUTH DAKOTA

CITY           SKY/WX    TMP DP  RH WIND       PRES   REMARKS
BUFFALO          N/A     34  19  54 NW15      29.89F WCI  24
FAITH            N/A     35  22  58 N14       29.95S WCI  26
MOBRIDGE       CLOUDY    24  21  88 N15       29.93F FOG     WCI  11
$$

SDZ012>016-024>037-041>051-057-063-072>074-222100-
SOUTHWEST AND SOUTH CENTRAL SOUTH DAKOTA

CITY           SKY/WX    TMP DP  RH WIND       PRES   REMARKS
RAPID CTY ARPT SUNNY     40  17  39 N23       29.93F
PIERRE         CLOUDY    24  23  96 N10       29.94S FOG     WCI  14
CUSTER         SUNNY     36   7  29 N13G18    29.89F
ELLSWORTH AFB  SUNNY     39  17  40 N22       29.93F
PHILIP         SUNNY     34  27  75 NW10      29.94F WCI  26
PINE RIDGE     SUNNY     24  15  68 W13       29.98F WCI  12
SPEARFISH        N/A     37  16  41 NW15G23   29.95F
WINNER         MIX PCPN  26  22  84 N14       29.92R WCI  14
$$

SDZ004>011-016>023-039-040-222100-
NORTHEAST SOUTH DAKOTA

CITY           SKY/WX    TMP DP  RH WIND       PRES   REMARKS
ABERDEEN       CLOUDY    24  22  91 N22       29.95S WCI   9
WATERTOWN      CLOUDY    24  24 100 N17G30    29.83R WCI  11
BROOKINGS      CLOUDY    26  23  88 N20       29.79R WCI  12
SISSETON         N/A     27  24  89 N21       29.89S WCI  13
$$

SDZ017-020-022-023-036>040-048>070-222100-
SOUTHEAST SOUTH DAKOTA

CITY           SKY/WX    TMP DP  RH WIND       PRES   REMARKS
SIOUX FALLS    FLURRIES  28  25  88 N29G36    29.73S WCI  12
HURON          CLOUDY    24  22  91 N22G33    29.90S WCI   9
MITCHELL       CLOUDY    25  22  88 N25G32    29.87S WCI   9
YANKTON        LGT SNOW  26  24  92 MISG      29.74S FOG
$$

ABBREVIATIONS USED IN REMARKS
   TC - TEMPERATURE IN CELSIUS
  WCI - WIND CHILL INDEX
   HX - HEAT INDEX
  VSB - VISIBILITY





USA.gov is the U.S. government's official web portal to all federal, state and local government web resources and services.